Other Public Products
Issued by NWS Charleston, SC

Current Version | Previous Version | Text Only | Print | Product List | Glossary On
Versions: 1 2 3 4 5 6 7 8 9 10 11 12 13 14 15 16 17 18 19 20 21 22 23 24 25 26 27 28 29 30 31 32 33 34 35 36 37 38 39 40 41 42 43 44 45 46 47 48 49 50
927 FPUS82 KCHS 212225 OPUCHS TEST...KCHS/KSAV Gateway Observations...TEST National Weather Service Charleston SC 500 PM EST TUE FEB 21 2017 NOTE: "fair" indicates few or no clouds below 12,000 feet with no significant weather and/or obstructions to visibility. SCZ050-WAZ558-NCZ071-TXZ119-213-PAZ071-DCZ001-FLZ074-172-MI076- NYZ176-178-MAZ016-IL014-TNZ027-NJZ106-GAZ044-MD014-212300- ...Gateway Observations for Charleston International... CITY SKY/WX TMP DP RH WIND PRES REMARKS Chas Airport CLOUDY 67 58 72 E14 30.08R Seattle CLOUDY 45 39 79 NE7 29.97R Charlotte CLOUDY 66 41 40 SE9 30.10R Dallas DFW SUNNY 77 43 29 NW20 29.90S Dallas Love MOSUNNY 76 45 33 N16G22 29.90F Philladelphia CLOUDY 49 28 44 S7 30.21S Wash National CLOUDY 55 34 45 S12 30.17F Baltimore CLOUDY 51 34 52 SE9 30.17F Miami CLOUDY 73 61 65 SE15 29.97F Detroit CLOUDY 57 47 69 S9 29.95R Newark CLOUDY 44 32 62 SE10 30.20F Laguardia CLOUDY 44 30 57 S15 30.21F J F K NOT AVBL Boston Logan CLOUDY 38 29 70 SE10 30.23F WCI 31 Ft. Lauderdale CLOUDY 75 60 59 SE14 29.97F Chicago O`Hare PTSUNNY 65 51 60 W6 29.89F Chicago Midway PTSUNNY 65 53 65 W7 29.90S Houston Bush MOSUNNY 75 47 36 N15G25 29.88S Houston Hobby MOSUNNY 76 43 30 NW17G29 29.86F Nashville CLOUDY 66 53 63 S10 29.94R Atlanta LGT RAIN 64 60 87 E9 30.00S $$ GAZ044-118-TXZ119-213-NCZ071-DCZ001-MDZ014-506-PAZ021-071-NJZ106- NYZ176-178-MAZ106-OHZ011-021-055-MIZ076-KYZ091-ILZ014-INZ047- MNZ060-212300- ...Gateway Observations for Savannah International... CITY SKY/WX TMP DP RH WIND PRES REMARKS Savannah Arpt CLOUDY 72 60 66 SE12 30.02F Atlanta LGT RAIN 64 60 87 E9 30.00S Charlotte CLOUDY 66 41 40 SE9 30.10R Dallas DFW SUNNY 77 43 29 NW20 29.90S Houston Bush MOSUNNY 75 47 36 N15G25 29.88S Wash National CLOUDY 55 34 45 S12 30.17F Wash Dulles CLOUDY 53 33 46 SE13 30.14F Baltimore CLOUDY 51 34 52 SE9 30.17F Philadelphia CLOUDY 49 28 44 S7 30.21S Newark CLOUDY 44 32 62 SE10 30.20F Laguardia CLOUDY 44 30 57 S15 30.21F J F K NOT AVBL Boston CLOUDY 38 29 70 SE10 30.23F WCI 31 Pittsburg CLOUDY 65 42 43 SW3 29.98S Akron CLOUDY 62 46 55 SW5 29.98S Cleveland CLOUDY 64 43 46 S6 29.97S Cincinnati LGT RAIN 59 56 89 SW5 29.97R FOG Columbus CLOUDY 62 49 61 SW3 29.98S Detroit CLOUDY 57 47 69 S9 29.95R Chicago O`Hare PTSUNNY 65 51 60 W6 29.89F Minneapolis PTSUNNY 61 42 49 S9G18 29.71F Indianapolis CLOUDY 63 48 58 S7 29.93S $$

USA.gov is the U.S. government's official web portal to all federal, state and local government web resources and services.